Flag for U.S.A. Weather past 2 weeks in Wichita, Kansas, U.S.A.

28 °F

Sleet. Overcast.

Feels Like: 15 °F
Forecast: 27 / 29 °F
Wind: 20 mph from North

Location: Wichita Mid-Continent Airport

Current Time: Nov 27, 2015 at 4:55:19 PM

Latest Report: Nov 27, 2015 at 3:53 PM

Visibility: 10 mi

Pressure: 30.45 "Hg

Humidity: 81%

Dew point: 23 °F

Location of WichitaLocation

Historic Weather in Wichita — Graph


Wichita temperature yesterday

Maximum temperature yesterday: 65 °F (at 3:53 AM)
Minimum temperature yesterday: 32 °F (at 10:53 PM)
Average temperature yesterday: 44 °F

Past Weeks' High & Low Weather Summary

High68 °F (Nov 25, 3:53 PM)97% (Nov 16, 7:53 AM)30.49 "Hg (Nov 16, 7:53 AM)
Low24 °F (Nov 22, 12:53 AM)17% (Nov 19, 2:53 PM)29.33 "Hg (Nov 17, 1:53 PM)
Average48 °F64%30.02 "Hg
* Reported Nov 12 3:53 PM — Nov 27 3:53 PM, Wichita, Weather by CustomWeather, © 2015

Note: Actual official high and low records may vary slightly from our data, if they occured in-between our weather recording intervals... More about our weather records


Wichita weather history for previous 24 hours

Time TempWeatherWind HumidityBarometerVisibility
3:53 PM
Fri, Nov 27
28 °FSleet. Overcast.20 mph81%30.45 "Hg10 mi
2:53 PM27 °FSleet. Overcast.24 mph85%30.44 "Hg10 mi
1:53 PM28 °FSleet. Overcast.21 mph85%30.44 "Hg10 mi
1:01 PM28 °FLight freezing rain. Low clouds.15 mph85%30.40 "Hg10 mi
11:53 AM28 °FSleet. Overcast.20 mph85%30.45 "Hg10 mi
10:53 AM28 °FSleet. Low clouds.17 mph85%30.49 "Hg10 mi
9:53 AM28 °FLight freezing rain. Ice fog.18 mph85%30.47 "Hg5 mi
8:53 AM28 °FLight freezing rain. Ice fog.21 mph89%30.45 "Hg4 mi
7:53 AM29 °FLight freezing rain. Overcast.17 mph82%30.43 "Hg10 mi
6:53 AM29 °FOvercast.13 mph85%30.39 "Hg10 mi
5:53 AM29 °FLight freezing rain. Ice fog.20 mph85%30.38 "Hg5 mi
4:53 AM30 °FFreezing rain. Ice fog.18 mph85%30.39 "Hg5 mi
3:53 AM30 °FFreezing rain. Ice fog.18 mph85%30.37 "Hg6 mi
2:53 AM30 °FLow clouds.20 mph85%30.36 "Hg10 mi
1:53 AM31 °FOvercast.21 mph85%30.34 "Hg10 mi
12:53 AM32 °FOvercast.20 mph82%30.33 "Hg10 mi
11:53 PM
Thu, Nov 26
32 °FLow clouds.18 mph88%30.31 "Hg10 mi
10:53 PM32 °FLight freezing rain. Low clouds.23 mph88%30.30 "Hg10 mi
9:53 PM33 °FOvercast.21 mph88%30.28 "Hg10 mi
8:53 PM33 °FLight rain. Mostly cloudy.15 mph88%30.27 "Hg7 mi
7:53 PM33 °FRain. Fog.15 mph88%30.26 "Hg3 mi
6:53 PM34 °FHeavy rain. Fog.17 mph88%30.26 "Hg3 mi
5:53 PM34 °FRain. Fog.22 mph88%30.22 "Hg2 mi
5:01 PM36 °FLight rain. Fog.22 mph89%30.19 "Hg3 mi
Weather by CustomWeather, © 2015

See weather overviewHow to use our weather pages